Theta_e
343 338 341 345 341 338 335 330 326 326 327 326 326 325 326 324 323 325 324 324 323 320
346 344 342 344 339 334 332 324 325 326 326 326 325 325 326 323 323 324 321 318 317 315
343 343 341 337 335 331 327 324 324 324 325 324 324 325 326 324 323 320 316 314 314 312
339 338 334 334 331 328 326 323 322 324 324 324 323 325 324 322 319 317 316 313 311 311
333 334 333 330 328 326 325 323 323 323 323 323 322 324 322 318 318 316 311 310 310 309
331 331 331 328 326 326 323 322 324 323 322 322 322 322 321 319 317 313 310 309 309 310
328 327 329 325 324 324 322 322 323 324 323 322 322 321 320 318 314 310 308 309 310 312
325 324 320 319 322 321 323 323 323 323 323 322 322 320 321 317 313 311 307 308 309 311
322 321 320 319 318 320 322 322 322 322 321 321 319 306 308 313 314 309 307 306 307 308
320 318 317 316 316 320 321 321 321 321 321 320 317 302 303 307 310 307 307 307 307 305
318 315 316 316 316 317 319 319 320 320 320 319 312 300 300 302 307 307 307 307 308 308
319 316 315 314 313 315 315 317 318 318 319 318 309 298 297 303 307 306 305 306 307 308
320 318 314 311 312 313 314 315 315 315 318 313 312 296 297 303 306 305 304 306 306 297
319 317 312 311 311 311 310 311 313 312 315 317 313 300 296 298 307 305 304 304 304 303
Wind_Speed
16 11 12 16 13 12 11 10 12 10 9 11 10 9 10 8 7 9 7 8 6 4
16 16 13 15 13 10 11 11 12 12 12 11 11 11 10 8 9 8 8 7 7 4
16 16 14 13 14 13 13 14 13 13 12 12 12 12 10 9 9 8 6 5 6 4
14 15 14 12 13 14 15 14 14 15 14 13 13 11 10 10 10 9 8 6 5 7
15 17 16 15 14 15 15 13 15 15 14 14 14 12 12 11 9 9 8 6 6 7
15 15 16 16 15 15 15 15 16 16 15 15 14 13 11 10 10 8 7 7 7 6
15 14 15 15 15 14 13 17 16 15 14 15 14 13 11 10 9 8 8 8 7 6
14 14 14 14 13 13 14 14 16 15 15 15 13 10 13 11 9 9 9 6 7 7
17 16 16 15 14 13 13 14 15 16 16 15 10 13 12 11 10 9 8 8 6 6
18 17 16 15 15 14 14 15 16 16 15 15 12 14 13 10 10 9 8 7 5 5
19 20 18 16 16 14 13 15 15 16 15 14 11 15 14 12 12 9 9 7 6 5
19 19 21 18 16 14 13 13 14 14 15 15 14 14 15 12 11 10 9 7 5 6
19 18 23 20 15 13 12 13 13 13 14 15 16 13 13 12 9 10 8 7 6 8
17 19 18 20 15 12 12 12 13 13 12 14 15 12 12 9 9 8 8 7 7 5
Wind_Direction
177 180 183 180 171 172 171 162 149 144 145 133 139 130 118 113 114 114 110 106 89 94
185 186 187 173 171 164 155 143 145 148 142 143 136 126 122 123 125 123 118 109 109 113
182 175 168 167 165 169 152 144 144 147 143 137 130 128 131 131 124 124 119 116 120 114
170 167 161 164 161 163 155 144 149 143 144 141 135 134 134 134 133 126 118 108 103 85
157 163 160 167 162 161 154 148 153 141 143 148 136 142 143 140 136 131 120 101 87 76
156 155 165 161 159 167 150 148 156 142 154 147 144 144 145 137 135 121 104 92 81 76
161 157 161 152 157 163 153 160 142 152 157 146 143 140 142 138 128 121 96 85 88 90
150 149 147 145 152 155 159 153 147 150 153 144 140 144 146 143 143 120 102 93 94 83
150 150 148 149 151 154 149 150 151 156 153 141 144 130 129 151 136 116 117 109 103 100
152 147 148 150 143 144 156 151 156 156 150 140 137 133 130 139 120 123 119 112 114 106
149 146 141 148 144 148 154 157 160 151 142 138 139 132 128 124 121 118 111 108 96 92
152 153 142 148 148 152 146 154 156 146 141 147 144 135 138 132 129 125 120 107 97 97
158 158 150 139 146 143 149 152 142 139 154 149 145 152 142 142 135 137 127 119 110 47
155 155 144 141 142 141 138 140 137 142 150 151 147 155 147 151 150 148 139 138 124 91